Troy, AL

4:59 AM CST on January 18, 2018 (GMT -0600)
Troy Municipal

Weather History for KTOI - May, 2013

Change the Weather History Date:

Saturday, May 4, 2013

  Actual Average Record
Temperature  
Mean Temperature 54 °F 68 °F  
Max Temperature 65 °F 81 °F 90 °F (2002)
Min Temperature 43 °F 55 °F 39 °F (2004)
Degree Days  
Heating Degree Days 10    
Cooling Degree Days 0 4  
Month to date cooling degree days 10 16  
Year to date cooling degree days 105 93  
Growing Degree Days 5 (Base 50)    
Moisture  
Dew Point 46 °F    
Average Humidity 69    
Maximum Humidity 93    
Minimum Humidity 44    
Precipitation  
Precipitation 0.96 in 0.10 in 0.96 in (2013)
Month to date precipitation 1.12 0.33  
Year to date precipitation 22.87 19.48  
Sea Level Pressure  
Sea Level Pressure 29.89 in    
Wind  
Wind Speed 8 mph (NW)    
Max Wind Speed 18 mph    
Max Gust Speed 25 mph    
Visibility 5 miles    
Events Rain    
T = Trace of Precipitation, MM = Missing Value Source: NWS Daily Summary

Daily Weather History Graph

Daily Weather History Graph

Search for Another Location

Airport or City:

Trip Planner

Search our weather history database for the weather conditions in past years. The results will help you decide how hot, cold, wet, or windy it might be!

Date:

Astronomy

May. 04, 2013 Rise Set
Actual Time 5:55 AM CDT 7:26 PM CDT
Civil Twilight 5:29 AM CDT 7:52 PM CDT
Nautical Twilight 4:57 AM CDT 8:24 PM CDT
Astronomical Twilight 4:25 AM CDT 8:57 PM CDT
Moon 2:34 AM CDT (5/4) 2:41 PM CDT (5/4)
Length of Visible Light 14h 23m
Length of Day
13h 31m
Waning Crescent, 27% of the Moon is Illuminated
May 4
Waning Crescent
May 9
New
May 17
First Quarter
May 24
Full
May 31
Last Quarter

Hourly Weather History & Observations

Time (CDT) Temp. Dew Point Humidity Pressure Visibility Wind Dir Wind Speed Gust Speed Precip Events Conditions
12:53 AM 63.0 °F 57.9 °F 84% 29.83 in 7.0 mi ESE 6.9 mph - 0.03 in Rain Light Rain
1:27 AM 62.6 °F 59.0 °F 88% 29.86 in 9.0 mi WSW 4.6 mph - 0.00 in   Overcast
1:34 AM 62.6 °F 59.0 °F 88% 29.87 in 6.0 mi WSW 8.1 mph - 0.00 in Rain Light Rain
1:53 AM 62.1 °F 57.9 °F 86% 29.86 in 4.0 mi WSW 11.5 mph 16.1 mph 0.04 in Rain Light Rain
2:08 AM 57.2 °F 53.6 °F 88% 29.87 in 4.0 mi Variable 4.6 mph - 0.04 in Rain Light Rain
2:37 AM 57.2 °F 53.6 °F 88% 29.86 in 10.0 mi West 3.5 mph - 0.05 in Rain Light Rain
2:53 AM 55.9 °F 53.1 °F 90% 29.85 in 10.0 mi West 4.6 mph - 0.05 in Rain Light Rain
3:40 AM 51.8 °F 48.2 °F 88% 29.87 in 2.5 mi WNW 8.1 mph - 0.07 in Rain Rain
3:47 AM 51.8 °F 48.2 °F 88% 29.87 in 3.0 mi WNW 9.2 mph - 0.08 in Rain Rain
3:53 AM 51.1 °F 46.9 °F 86% 29.86 in 4.0 mi WNW 8.1 mph - 0.09 in Rain Light Rain
4:38 AM 48.2 °F 44.6 °F 87% 29.87 in 4.0 mi WNW 5.8 mph - 0.06 in Rain Rain
4:44 AM 48.2 °F 44.6 °F 87% 29.87 in 1.8 mi WNW 6.9 mph - 0.10 in Rain Heavy Rain
4:53 AM 48.9 °F 45.0 °F 86% 29.87 in 2.5 mi WNW 6.9 mph - 0.13 in Rain Rain
5:00 AM 48.2 °F 44.6 °F 87% 29.87 in 6.0 mi Variable 5.8 mph - 0.00 in Rain Light Rain
5:08 AM 48.2 °F 44.6 °F 87% 29.87 in 2.5 mi WNW 8.1 mph - 0.04 in Rain Heavy Rain
5:15 AM 48.2 °F 44.6 °F 87% 29.88 in 3.0 mi WNW 5.8 mph - 0.05 in Rain Light Rain
5:22 AM 48.2 °F 44.6 °F 87% 29.86 in 2.5 mi NW 5.8 mph - 0.09 in Rain Heavy Rain
5:27 AM 48.2 °F 44.6 °F 87% 29.87 in 1.5 mi WNW 5.8 mph - 0.13 in Rain Heavy Rain
5:33 AM 48.2 °F 44.6 °F 87% 29.88 in 2.0 mi WNW 6.9 mph - 0.15 in Rain Rain
5:43 AM 48.2 °F 44.6 °F 87% 29.87 in 3.0 mi NNW 6.9 mph - 0.17 in Rain Rain
5:53 AM 48.0 °F 45.0 °F 89% 29.87 in 4.0 mi NW 6.9 mph - 0.18 in Rain Light Rain
6:03 AM 48.2 °F 44.6 °F 87% 29.89 in 5.0 mi NW 5.8 mph - 0.01 in Rain Light Rain
6:10 AM 48.2 °F 44.6 °F 87% 29.89 in 5.0 mi WNW 8.1 mph - 0.01 in Rain Light Rain
6:21 AM 48.2 °F 44.6 °F 87% 29.89 in 3.0 mi NW 8.1 mph - 0.03 in Rain Rain
6:28 AM 48.2 °F 44.6 °F 87% 29.89 in 2.5 mi NW 6.9 mph - 0.04 in Rain Light Rain
6:37 AM 48.2 °F 44.6 °F 87% 29.89 in 3.0 mi NNW 10.4 mph - 0.05 in Rain Light Rain
6:47 AM 48.2 °F 44.6 °F 87% 29.89 in 6.0 mi NW 11.5 mph 17.3 mph 0.05 in Rain Light Rain
6:48 AM 48.0 °F 44.1 °F 86% 29.89 in 5.0 mi NW 13.8 mph 17.3 mph 0.06 in Rain Light Rain
6:59 AM 48.2 °F 44.6 °F 87% 29.91 in 2.0 mi WNW 4.6 mph 18.4 mph 0.03 in Rain Rain
7:18 AM 48.2 °F 44.6 °F 87% 29.91 in 1.2 mi NNW 9.2 mph - 0.12 in Rain Rain
7:21 AM 48.2 °F 44.6 °F 87% 29.91 in 1.8 mi NNW 10.4 mph - 0.12 in Rain Rain
7:29 AM 48.2 °F 44.6 °F 87% 29.91 in 2.5 mi NNW 10.4 mph - 0.14 in Rain Rain
7:44 AM 48.2 °F 44.6 °F 87% 29.90 in 3.0 mi NNW 9.2 mph 18.4 mph 0.16 in Rain Light Rain
7:53 AM 48.0 °F 44.1 °F 86% 29.90 in 6.0 mi NNW 11.5 mph - 0.16 in Rain Light Rain
8:31 AM 48.2 °F 44.6 °F 87% 29.92 in 2.0 mi NW 6.9 mph - 0.02 in Rain Light Rain
8:36 AM 48.2 °F 44.6 °F 87% 29.91 in 1.5 mi NNW 6.9 mph - 0.05 in Rain Rain
8:43 AM 48.2 °F 44.6 °F 87% 29.91 in 2.0 mi NW 6.9 mph - 0.06 in Rain Light Rain
8:53 AM 48.9 °F 45.0 °F 86% 29.90 in 6.0 mi North 8.1 mph - 0.06 in Rain Light Rain
9:08 AM 48.2 °F 44.6 °F 87% 29.91 in 5.0 mi NW 6.9 mph - 0.00 in Rain Light Rain
9:21 AM 48.2 °F 44.6 °F 87% 29.92 in 2.5 mi NW 8.1 mph - 0.02 in Rain Light Rain
9:31 AM 48.2 °F 44.6 °F 87% 29.92 in 3.0 mi NW 9.2 mph - 0.02 in Rain Light Rain
9:41 AM 48.2 °F 44.6 °F 87% 29.93 in 4.0 mi WNW 10.4 mph - 0.03 in Rain Light Rain
9:53 AM 48.0 °F 45.0 °F 89% 29.91 in 2.5 mi NW 9.2 mph - 0.05 in Rain Light Rain
9:59 AM 48.2 °F 44.6 °F 87% 29.92 in 3.0 mi WNW 12.7 mph - 0.01 in Rain Rain
10:08 AM 48.2 °F 44.6 °F 87% 29.92 in 1.8 mi NW 10.4 mph - 0.05 in Rain Heavy Rain
10:20 AM 48.2 °F 44.6 °F 87% 29.93 in 2.5 mi WNW 12.7 mph - 0.07 in Rain Rain
10:30 AM 48.2 °F 44.6 °F 87% 29.93 in 1.5 mi NW 10.4 mph - 0.10 in Rain Rain
10:36 AM 48.2 °F 46.4 °F 93% 29.93 in 1.8 mi WNW 9.2 mph - 0.11 in Rain Light Rain
10:44 AM 50.0 °F 46.4 °F 87% 29.93 in 3.0 mi NW 10.4 mph 17.3 mph 0.12 in Rain Light Rain
10:53 AM 50.0 °F 46.9 °F 89% 29.93 in 2.5 mi NW 8.1 mph 20.7 mph 0.12 in Rain Light Rain
11:02 AM 51.8 °F 46.4 °F 82% 29.93 in 4.0 mi NNW 11.5 mph 18.4 mph 0.01 in Rain Light Rain
11:41 AM 51.8 °F 46.4 °F 82% 29.93 in 10.0 mi NNW 13.8 mph 23.0 mph 0.02 in Rain Light Rain
11:53 AM 51.1 °F 46.0 °F 83% 29.92 in 10.0 mi NW 13.8 mph - 0.02 in Rain Light Rain
12:14 PM 53.6 °F 44.6 °F 72% 29.92 in 10.0 mi NNW 16.1 mph 21.9 mph N/A   Overcast
12:53 PM 55.0 °F 46.0 °F 72% 29.91 in 10.0 mi NNW 10.4 mph - N/A   Overcast
1:53 PM 61.0 °F 46.0 °F 58% 29.88 in 10.0 mi NNW 11.5 mph 20.7 mph N/A   Mostly Cloudy
2:13 PM 62.6 °F 46.4 °F 55% 29.89 in 10.0 mi NNW 16.1 mph 23.0 mph N/A   Mostly Cloudy
2:53 PM 64.0 °F 44.1 °F 48% 29.88 in 10.0 mi NW 12.7 mph - N/A   Mostly Cloudy
3:53 PM 64.0 °F 43.0 °F 46% 29.87 in 10.0 mi NNW 13.8 mph 20.7 mph N/A   Clear
4:53 PM 64.0 °F 42.1 °F 45% 29.88 in 10.0 mi North 11.5 mph - N/A   Clear
5:53 PM 62.1 °F 42.1 °F 48% 29.87 in 10.0 mi North 10.4 mph - N/A   Clear
6:19 PM 60.8 °F 41.0 °F 48% 29.88 in 10.0 mi North 9.2 mph - N/A   Partly Cloudy
6:53 PM 57.9 °F 42.1 °F 56% 29.88 in 10.0 mi NNE 6.9 mph - N/A   Clear
7:53 PM 53.1 °F 43.0 °F 69% 29.90 in 10.0 mi North 3.5 mph - N/A   Clear
8:53 PM 48.9 °F 44.1 °F 83% 29.91 in 10.0 mi Calm Calm - N/A   Clear
9:53 PM 46.9 °F 44.1 °F 90% 29.93 in 10.0 mi Calm Calm - N/A   Clear
10:53 PM 46.9 °F 43.0 °F 86% 29.92 in 10.0 mi Calm Calm - N/A   Clear
11:53 PM 44.1 °F 39.9 °F 85% 29.91 in 8.0 mi Calm Calm - N/A   Clear